EDT,Max TemperatureF,Mean TemperatureF,Min TemperatureF,Max Dew PointF,MeanDew PointF,Min DewpointF,Max Humidity, Mean Humidity, Min Humidity, Max Sea Level PressureIn, Mean Sea Level PressureIn, Min Sea Level PressureIn, Max VisibilityMiles, Mean VisibilityMiles, Min VisibilityMiles, Max Wind SpeedMPH, Mean Wind SpeedMPH, Max Gust SpeedMPH,PrecipitationIn, CloudCover, Events, WindDirDegrees
2013-8-1,86,79,72,74,72,70,100,85,69,30.01,29.94,29.89,10,9,5,13,5,20,T,5,Rain-Thunderstorm,223
2013-8-2,89,81,73,76,73,72,100,82,63,30.04,29.98,29.92,10,8,4,14,4,16,0.00,4,,212
2013-8-3,92,83,74,77,74,72,100,76,52,30.04,30.00,29.91,10,8,2,12,5,16,0.10,4,Rain,209
2013-8-4,90,79,68,74,70,64,100,75,50,30.01,29.94,29.90,10,8,2,20,5,24,0.00,1,,357
2013-8-5,89,78,66,66,62,58,93,65,36,30.07,30.03,30.00,10,9,4,10,4,15,0.00,1,,143
2013-8-6,82,75,67,70,66,63,93,76,58,30.07,30.04,29.99,10,10,10,8,1,10,T,1,Rain,152
2013-8-7,89,79,68,71,67,63,97,70,43,30.09,30.06,30.02,10,10,10,14,4,17,0.00,3,,133
2013-8-8,93,81,69,75,71,67,100,74,47,30.07,30.04,30.00,10,9,3,10,2,14,0.00,1,,211
2013-8-9,94,85,76,75,74,71,100,75,49,30.10,30.06,30.01,10,9,6,15,8,20,0.00,3,,221
2013-8-10,96,86,75,74,72,70,94,70,46,30.11,30.08,30.02,10,10,10,15,7,21,0.00,1,,236
2013-8-11,96,85,73,75,72,71,93,70,46,30.12,30.07,30.01,10,10,7,15,5,18,0.00,1,,240
2013-8-12,98,87,76,75,72,69,94,68,42,30.05,30.00,29.94,10,10,9,13,6,21,0.00,1,,258
2013-8-13,96,86,75,76,74,71,94,72,49,29.94,29.85,29.79,10,10,3,18,8,24,0.04,2,Rain-Thunderstorm,222
2013-8-14,79,74,69,74,68,64,100,84,67,30.06,29.95,29.83,10,10,8,15,6,18,T,4,Rain,50
2013-8-15,77,70,62,62,60,58,93,77,60,30.14,30.09,30.05,10,10,7,13,7,,0.19,7,Rain,65
2013-8-16,72,70,67,66,64,63,93,83,73,30.14,30.11,30.06,10,8,2,10,6,16,0.61,8,Rain,35
2013-8-17,77,72,66,73,69,64,100,91,82,30.14,30.11,30.08,10,6,1,10,5,15,0.15,8,Rain,38
2013-8-18,88,79,70,74,70,69,100,79,57,30.20,30.16,30.12,10,8,2,9,2,20,T,6,,264
2013-8-19,77,74,71,74,72,70,100,94,87,30.17,30.13,30.08,10,7,1,12,5,15,2.06,8,Rain,41
2013-8-20,88,80,72,74,72,71,100,82,63,30.18,30.14,30.09,10,6,0,14,3,20,0.73,7,Fog-Rain-Thunderstorm,29
2013-8-21,89,80,70,77,72,69,100,82,63,30.23,30.18,30.11,10,5,0,15,2,18,0.71,6,Fog-Rain-Thunderstorm,154
2013-8-22,89,80,70,75,72,70,100,82,63,30.15,30.09,30.01,10,6,0,15,3,22,0.52,3,Fog-Rain-Thunderstorm,246
2013-8-23,90,81,71,75,71,70,94,73,52,30.03,29.99,29.93,10,9,5,13,4,16,0.04,1,Rain,289
2013-8-24,83,77,70,73,66,60,93,70,47,30.26,30.15,30.03,10,9,7,17,9,24,0.00,4,Rain-Thunderstorm,35
2013-8-25,82,73,63,64,60,54,93,68,42,30.36,30.30,30.26,10,10,10,18,7,25,0.00,0,,42
2013-8-26,84,73,61,65,61,59,97,72,47,30.31,30.22,30.13,10,10,10,10,3,15,0.00,1,,8
2013-8-27,86,74,61,71,65,59,97,78,58,30.14,30.05,29.98,10,10,10,10,4,15,0.00,0,,230
2013-8-28,89,79,69,76,71,67,93,76,59,30.00,29.96,29.91,10,8,5,8,3,,0.00,0,,241
2013-8-29,92,83,73,75,72,70,87,73,59,29.97,29.90,29.87,10,8,5,20,7,25,0.01,2,Rain,317
2013-8-30,87,78,68,70,68,66,97,74,51,30.06,30.00,29.95,10,8,3,13,4,24,0.00,2,,72
2013-8-31,90,78,66,74,70,66,100,76,52,29.99,29.94,29.88,10,6,0,9,2,14,0.00,3,Fog,200